This demonstration page uses our WeatherBlox Daily Observations layout. Learn more.

Left ArrowRight Arrow

44.8408, -93.29828

Hourly Observations for April 5, 2022

Temp ( °F °C ) Dew Point ( °F °C ) Humidity (%) Winds ( mph kmh ) Pressure ( in mb ) Visibility ( mi km ) Precip ( " mm )
12:53 am 00:53 Partly Cloudy 37 2.8 31 -0.6 79 79 SE 14 22 29.78 1009 10 16 0.00 0.00
1:53 am 01:53 Partly Cloudy 36 2.2 30 -1.1 79 79 SE 14 22 29.75 1007 10 16 0.00 0.00
2:53 am 02:53 Partly Cloudy 36 2.2 30 -1.1 79 79 SE 14 22 29.73 1007 10 16 0.00 0.00
3:53 am 03:53 Clear 35 1.7 30 -1.1 82 82 SE 14 22 29.70 1006 10 16 0.00 0.00
4:53 am 04:53 Partly Cloudy 35 1.7 30 -1.1 82 82 SE 13 20 29.66 1004 10 16 0.00 0.00
5:53 am 05:53 Partly Cloudy 34 1.1 30 -1.1 85 85 SE 10 17 29.64 1004 10 16 0.00 0.00
6:53 am 06:53 Partly Cloudy 34 1.1 31 -0.6 89 89 SE 17 28 29.63 1003 10 16 0.00 0.00
7:29 am 07:29 Mostly Cloudy 35 1.7 31 -0.6 85 85 SE 20 31 29.64 1004 9 14 0.00 0.00
7:53 am 07:53 Cloudy 36 2.2 32 0 86 86 SE 21 33 29.61 1003 10 16 0.00 0.00
8:53 am 08:53 Cloudy 36 2.2 32 0 86 86 SE 21 33 29.60 1002 10 16 0.00 0.00
9:53 am 09:53 Cloudy 37 2.8 32 0 82 82 SE 20 31 29.59 1002 10 16 0.00 0.00
10:53 am 10:53 Cloudy 38 3.3 33 0.6 83 83 SSE 16 26 29.57 1001 10 16 0.00 0.00
11:26 am 11:26 Cloudy with Light Rain 37 2.8 33 0.6 86 86 SE 16 26 29.57 1002 2 3 0.02 0.51
11:34 am 11:34 Cloudy with Light Rain 36 2.2 33 0.6 89 89 SE 16 26 29.58 1002 3 5 0.03 0.76
11:53 am 11:53 Cloudy with Rain 36 2.2 33 0.6 89 89 SE 18 30 29.55 1001 3 4 0.08 2.03
12:06 pm 12:06 Cloudy with Light Rain 36 2.2 33 0.6 89 89 SE 20 31 29.56 1001 3 5 0.02 0.51
12:53 pm 12:53 Windy with Snow Likely 38 3.3 35 1.7 89 89 SE 29 46 29.49 999 6 10 0.07 1.78
1:05 pm 13:05 Cloudy with Light Rain 38 3.3 35 1.7 89 89 ESE 25 41 29.50 999 6 10 0.00 0.00
1:53 pm 13:53 Cloudy with Light Rain 39 3.9 36 2.2 89 89 SE 16 26 29.47 998 10 16 0.01 0.25
2:38 pm 14:38 Cloudy with Light Rain 40 4.4 36 2.2 86 86 ESE 16 26 29.44 997 10 16 0.01 0.25
2:53 pm 14:53 Cloudy 41 5 37 2.8 86 86 ESE 21 33 29.42 996 10 16 0.01 0.25
3:35 pm 15:35 Cloudy with Light Rain 42 5.6 37 2.8 82 82 SE 17 28 29.41 996 8 13 0.00 0.00
3:53 pm 15:53 Cloudy with Light Rain 42 5.6 38 3.3 85 85 SE 17 28 29.38 995 9 14 0.01 0.25
4:53 pm 16:53 Cloudy with Light Rain 43 6.1 39 3.9 86 86 SE 17 28 29.36 994 6 10 0.02 0.51
5:11 pm 17:11 Cloudy with Light Rain 43 6.1 40 4.4 89 89 SSE 17 28 29.38 995 4 6 0.00 0.00
5:53 pm 17:53 Cloudy with Light Rain 43 6.1 40 4.4 89 89 SE 17 28 29.36 994 5 8 0.03 0.76
6:04 pm 18:04 Cloudy with Light Rain 43 6.1 40 4.4 89 89 SE 16 26 29.36 994 3 5 0.00 0.00
6:28 pm 18:28 Cloudy with Light Rain 43 6.1 40 4.4 89 89 SE 18 30 29.36 994 4 6 0.02 0.51
6:53 pm 18:53 Cloudy with Light Rain 43 6.1 41 5 93 93 SE 16 26 29.33 993 7 11 0.05 1.27
7:07 pm 19:07 Cloudy with Light Rain 43 6.1 41 5 93 93 SSE 14 22 29.34 994 3 4 0.00 0.00
7:16 pm 19:16 Cloudy with Light Rain 43 6.1 41 5 93 93 SE 14 22 29.33 993 4 6 0.01 0.25
7:53 pm 19:53 Cloudy with Light Rain 43 6.1 41 5 93 93 SE 21 33 29.31 993 8 13 0.05 1.27
8:04 pm 20:04 Cloudy 43 6.1 41 5 93 93 SE 15 24 29.30 992 8 13 0.00 0.00
8:53 pm 20:53 Cloudy with Light Rain 44 6.7 42 5.6 93 93 SSE 17 28 29.30 992 10 16 0.01 0.25
9:45 pm 21:45 Cloudy with Light Rain 45 7.2 41 5 86 86 SW 16 26 29.31 993 7 11 0.00 0.00
9:53 pm 21:53 Cloudy with Mist and Fog 44 6.7 41 5 89 89 WSW 13 20 29.30 992 6 10 0.00 0.00
10:24 pm 22:24 Cloudy 41 5 38 3.3 89 89 SW 16 26 29.31 992 7 11 0.00 0.00
10:53 pm 22:53 Cloudy 39 3.9 36 2.2 89 89 SW 21 33 29.30 992 10 16 0.00 0.00
11:53 pm 23:53 Cloudy with Light Rain 39 3.9 36 2.2 89 89 SW 17 28 29.29 992 10 16 0.00 0.00

Powered by AerisWeather